Regional Weather Roundup
Issued by NWS Raleigh/Durham, NC

Home | Current Version | Previous Version | Text Only | Print | Product List | Glossary On
Versions: 1 2 3 4 5 6 7 8 9 10 11 12 13 14 15 16 17 18 19 20 21 22 23 24 25 26 27
000
ASUS42 KRAH 261710
RWRRAH
NORTH CAROLINA WEATHER ROUNDUP
NATIONAL WEATHER SERVICE RALEIGH NC
1200 PM EST SUN FEB 26 2017

NOTE: "FAIR" INDICATES FEW OR NO CLOUDS BELOW 12,000 FEET WITH NO
SIGNIFICANT WEATHER AND/OR OBSTRUCTIONS TO VISIBILITY.

NCZ001-053-055-056-065-067-261800-
WESTERN NORTH CAROLINA

CITY           SKY/WX    TMP DP  RH WIND       PRES   REMARKS
ASHEVILLE      SUNNY     42  11  28 N10G18    30.19S
JEFFERSON      SUNNY     35   8  32 W12G17    30.14R WCI  26
MORGANTON      SUNNY     47  10  21 SW7       30.24R
HICKORY        SUNNY     47  11  23 W9        30.20R
RUTHERFORDTON  SUNNY     49  16  27 N3        30.22S
MOUNT AIRY     SUNNY     46  13  26 W6        30.20S
BOONE          SUNNY     35   5  29 W15G24    30.15R WCI  25
$$

NCZ021-022-025-041-071-084-088-261800-
CENTRAL NORTH CAROLINA

CITY           SKY/WX    TMP DP  RH WIND       PRES   REMARKS
CHARLOTTE      SUNNY     50  16  25 W3        30.21F
GREENSBORO     SUNNY     46  15  28 NW10      30.19R
WINSTON-SALEM  SUNNY     45  11  25 W9        30.21R
RALEIGH-DURHAM SUNNY     49  14  24 VRB3      30.20S
FORT BRAGG     SUNNY     52  17  25 CALM      30.19F
FAYETTEVILLE     N/A    N/A N/A N/A MISG      30.20S
BURLINGTON     SUNNY     48  15  26 W8        30.19S
LAURINBURG     SUNNY     54  20  26 VRB6      30.21F
$$

NCZ011-015-027-028-043-044-047-080-103-261800-
NORTHEASTERN NORTH CAROLINA

CITY           SKY/WX    TMP DP  RH WIND       PRES   REMARKS
ROCKY MT-WILSO SUNNY     50  21  32 W5G16     30.18F
GREENVILLE     SUNNY     50  21  32 NW6       30.19F
WASHINGTON     SUNNY     50  24  36 NW5       30.17F
ELIZABETH CITY SUNNY     52  26  36 VRB6      30.16S
MANTEO         SUNNY     50  31  48 NW7       30.17S
CAPE HATTERAS  SUNNY     55  31  39 VRB7      30.16S
$$

NCZ078-087-090-091-093-098-101-261800-
SOUTHEASTERN NORTH CAROLINA

CITY           SKY/WX    TMP DP  RH WIND       PRES   REMARKS
LUMBERTON      SUNNY     53  20  27 CALM      30.20F
GOLDSBORO      SUNNY     53  17  24 W6        30.16F
KINSTON        SUNNY     54  18  24 NW8       30.19F
KENANSVILLE    SUNNY     52  18  25 NW7       30.19F
NEW BERN       SUNNY     53  23  31 NW8       30.18F
CHERRY POINT   SUNNY     54  26  34 VRB5      30.18R
BEAUFORT       SUNNY     55  27  34 NW6       30.17F
JACKSONVILLE   NOT AVBL
WILMINGTON     SUNNY     56  19  23 N7        30.19F
$$





USA.gov is the U.S. government's official web portal to all federal, state and local government web resources and services.